Hoquiam, WA
on Monday, December 17, 2012

Monday
Previous Day Next Day
Daily Summary
 ActualAverageRecord
Temperature
Mean Temperature °F 41°F  
Max Temperature 48°F 46°F 55°F (1973)
Min Temperature 36°F 37°F 16°F (1964)
Degree Days
Heating Degree Days 22 24  
Month to date heating degree days 395  
Cooling Degree Days 0 0  
Month to date cooling degree days 0  
Year to date cooling degree days 23  
Moisture
Dew Point 37°F   
Average Humidity 78    
Maximum Humidity 93    
Minimum Humidity 60    
Precipitation
Precipitation 0.24 in 0.30 in 2.25 in (1994)
Month to date precipitation 5.48  
Year to date precipitation 63.07  
Wind
Wind Speed 24 mph   
Max Wind Speed 38 mph   
Max Gust Speed 60 mph   
Visibility 8 miles   
Events Rain   

Key: T is trace of precipitation, MM is missing value
Source: NWS Daily Summary
Time(PST)TemperatureDew PointHumidity Pressure Visibility Wind DirectionWind SpeedGust SpeedPrecipitationEvents Conditions
12:32 AM 48.2°F 46.4°F 93% 28.89 in 10.0 miles WSW 18.4 mph - 0.01 in   Overcast
12:53 AM 48.0°F 45.0°F 89% 28.94 in 10.0 miles WSW 17.3 mph 26.5 mph 0.02 in   Overcast
1:19 AM 48.2°F 44.6°F 87% 28.96 in 10.0 miles SW 20.7 mph - N/A   Overcast
1:49 AM 44.6°F 42.8°F 93% 29.00 in 5.0 miles West 38.0 mph 50.6 mph 0.03 in Rain Light Rain
1:53 AM 45.0°F 39.9°F 82% 29.03 in 7.0 miles West 35.7 mph 50.6 mph 0.03 in Rain Light Rain
2:50 AM 46.4°F 39.2°F 76% 29.14 in 10.0 miles West 38.0 mph 49.5 mph 0.01 in Rain Light Rain
2:53 AM 46.0°F 39.0°F 76% 29.15 in 10.0 miles West 32.2 mph 49.5 mph 0.01 in Rain Light Rain
3:46 AM 44.6°F 39.2°F 81% 29.22 in 2.5 miles West 35.7 mph 59.8 mph 0.04 in Rain Rain
3:53 AM 45.0°F 39.9°F 82% 29.24 in 4.0 miles West 33.4 mph 46.0 mph 0.04 in Rain Light Rain
4:19 AM 46.4°F 41.0°F 81% 29.26 in 10.0 miles West 27.6 mph 40.3 mph 0.01 in   Overcast
4:53 AM 46.0°F 37.9°F 73% 29.31 in 5.0 miles West 34.5 mph 50.6 mph 0.02 in Rain Light Rain
5:53 AM 46.0°F 37.9°F 73% 29.39 in 10.0 miles West 33.4 mph 40.3 mph 0.00 in   Overcast
6:03 AM 46.4°F 39.2°F 76% 29.39 in 9.0 miles West 33.4 mph 44.9 mph 0.00 in Rain Light Rain
6:18 AM 46.4°F 39.2°F 76% 29.41 in 10.0 miles West 29.9 mph 40.3 mph 0.00 in Rain Light Rain
6:53 AM 43.0°F 37.0°F 80% 29.46 in 4.0 miles WSW 28.8 mph 47.2 mph 0.04 in Rain Rain
7:02 AM 44.6°F 37.4°F 76% 29.46 in 10.0 miles West 29.9 mph 40.3 mph 0.00 in Rain Light Rain
7:53 AM 45.0°F 36.0°F 71% 29.53 in 10.0 miles WSW 27.6 mph 40.3 mph 0.00 in   Overcast
8:53 AM 44.1°F 34.0°F 68% 29.59 in 10.0 miles West 27.6 mph 38.0 mph 0.00 in   Overcast
9:53 AM 44.1°F 34.0°F 68% 29.64 in 10.0 miles WSW 20.7 mph 32.2 mph 0.00 in   Mostly Cloudy
10:53 AM 39.9°F 33.1°F 77% 29.70 in 4.0 miles West 21.9 mph 39.1 mph 0.03 in Rain Light Rain
11:53 AM 39.0°F 32.0°F 76% 29.73 in 7.0 miles West 21.9 mph 43.7 mph 0.00 in Rain Light Rain
12:53 PM 44.1°F 30.9°F 60% 29.74 in 10.0 miles WSW 28.8 mph 39.1 mph 0.00 in   Mostly Cloudy
1:53 PM 39.9°F 30.9°F 70% 29.76 in 10.0 miles West 17.3 mph 31.1 mph 0.01 in Rain Light Rain
4:53 PM 39.9°F 33.1°F 77% 29.83 in 8.0 miles West 10.4 mph - 0.01 in Rain Light Rain
5:53 PM 39.9°F 32.0°F 73% 29.85 in 10.0 miles West 4.6 mph - 0.01 in   Overcast
6:53 PM 41.0°F 32.0°F 70% 29.86 in 10.0 miles WSW 6.9 mph - N/A   Partly Cloudy
7:53 PM 39.9°F 30.9°F 70% 29.87 in 10.0 miles SW 17.3 mph - N/A   Scattered Clouds
8:53 PM 39.9°F 32.0°F 73% 29.89 in 10.0 miles WSW 17.3 mph 32.2 mph 0.01 in   Overcast
9:53 PM 37.9°F 34.0°F 86% 29.89 in 10.0 miles South 6.9 mph - N/A   Partly Cloudy
10:53 PM 37.9°F 34.0°F 86% 29.88 in 10.0 miles ESE 8.1 mph - 0.00 in   Mostly Cloudy
11:53 PM 36.0°F 33.1°F 89% 29.89 in 7.0 miles ENE 4.6 mph - 0.01 in Rain Light Rain
Moon Phase
Dec. 17 Dec. 20 Dec. 28 Jan. 04 Jan. 11
Sunrise:07:56 AM (PST) Moon Rise:10:51 AM (PST)12/17
Sunset:04:27 PM (PST) Moon Set:10:14 PM (PST)12/17

Copyright © 2014 The Weather Underground, Inc.